カタログに戻る

SL-8 R/B

運用中LEO
NORAD 10938·ROCKET BODY·🇷🇺 Russia

打ち上げ Jun 7, 1978 から Plesetsk Cosmodrome

Loading…

次のパス (今後24時間)

TLE

最新Source: Space-Track

元期: Sep 14, 2026, 16:06 UTC

1 10938U 78056J   26257.67146413  .00000009  00000-0  22001-3 0  9998
2 10938  74.0245 337.9916 0133172 358.1074 156.0824 12.21540974152568

AllMySatでSL-8 R/Bをリアルタイム追跡

Download on the App Store